Вернуться в каталог

COSMOS 1823 DEB

АктивенLEO
NORAD 39820·DEBRIS·🇷🇺 Russia

Запущен Feb 20, 1987 с Plesetsk Cosmodrome

Loading…

Ближайшие Пролёты (ближайшие 24 часа)

TLE

УстаревающийSource: Space-Track

Эпоха: Sep 9, 2026, 07:04 UTC

1 39820U 87020EU  26252.29448330  .00000072  00000-0  62346-3 0  9992
2 39820  73.6309 223.5860 0026391 322.5807 104.0208 12.45776379557751

Отслеживайте COSMOS 1823 DEB в реальном времени с AllMySat

Download on the App Store